Location: *
(44.9308°N, 123.0197°W)
Time: 22:15:42
(UTC+00:00)

Okean 1 Rocket - Pass Details

Date: 09 April 2020
Orbit: 607 x 634 km, 82.5° (Epoch: 02 June)

Event Time Altitude Azimuth Distance (km) Brightness Sun altitude
Rises 12:58:51 0° 343° (NNW) 2,890 6.5 -7.3°
Reaches altitude 10° 13:01:12 10° 334° (NNW) 1,983 5.6 -6.9°
Maximum altitude 13:05:12 35° 269° (W) 996 3.7 -6.3°
Drops below altitude 10° 13:09:12 10° 203° (SSW) 1,983 5.3 -5.6°
Sets 13:11:33 0° 195° (SSW) 2,889 6.2 -5.2°
